Weather in 6-sovxoz 2 bo'limi

Uzbekistan     41°25′56″N   69°27′55″E
temp.,
°C
wind,
m/s
gust,
m/s
humid.,
%
clouds,
%
prec.,
mm/h
press.,
hPa
HPBL,
m
21 june, mon
mon2123:00+20se22290 0.0 101016
02:00+19e22260 0.0 101017
05:00+18ese22280 0.0 101119
08:00+23s45240 0.0 1012429
11:00+28sw44160 0.0 10121183
14:00+32wsw43110 0.0 10102318
17:00+32nw6480 0.0 10093041
20:00+25nnw510210 0.0 1010172
22 june, tue
tue2223:00+22ne33270 0.0 101223
02:00+20ene34300 0.0 101144
05:00+19ene33310 0.0 101232
08:00+28e11195 0.0 1011500
11:00+32w54172 0.0 10102852
14:00+34wnw54154 0.0 10093401
17:00+33nw75135 0.0 10082909
20:00+26nnw711190 0.0 1010313
23 june, wed
wed2323:00+20ne22275 0.0 101015
02:00+18ese22295 0.0 101015
05:00+18ese33310 0.0 101126
08:00+23s56240 0.0 1012488
11:00+29ssw44140 0.0 10111293
14:00+32wsw33100 0.0 10102008
17:00+33w3280 0.0 10082190
20:00+26nnw48160 0.0 1009143
24 june, thu
thu2423:00+21e33210 0.0 101021
02:00+20ene33210 0.0 101025
05:00+19e33224 0.0 100924
08:00+24s34205 0.0 1010411
11:00+31sw32140 0.0 10091387
14:00+34wsw4390 0.0 10072796
17:00+34nw86130 0.0 10063319
20:00+28nnw712261 0.0 1007346
25 june, fri
fri2523:00+23nne33399 0.0 100836
02:00+22nne33380 0.0 100727
05:00+20n33430 0.0 100838
08:00+27nw34310 0.0 1009698
11:00+30w44200 0.0 10082104
14:00+33w54130 0.0 10062801
17:00+32nnw85120 0.0 10052688
20:00+25n7112026 0.0 1005310